Location: Gülübeli Geçidi
(36.8411°N, 29.7411°E)
Time: 20:20:12
(UTC+00:00)

H-2A R/B - Pass Details

Date: 15 May 2026
Orbit: 730 x 828 km, 98.3° (Epoch: 8 June)

Event Time Altitude Azimuth Distance (km) Brightness Sun altitude
Rises 23:48:55 0° 31° (NNE) 3,368 6.6 -28.2°
Reaches altitude 10° 23:51:58 10° 48° (NE) 2,435 5.5 -27.9°
Maximum altitude 23:55:46 19° 93° (E) 1,865 4.2 -27.5°
Enters shadow 23:58:27 14° 128° (SE) 2,167 4.3 -27.2°
